Regional Weather Roundup
Issued by NWS

Home | Current Version | Previous Version | Text Only | Print | Product List | Glossary On
Versions: 1 2 3 4 5 6 7 8 9 10 11 12 13 14 15 16 17 18 19 20 21 22 23 24 25 26 27 28 29 30 31 32 33 34 35 36 37 38 39 40 41 42 43 44 45 46 47 48 49 50
000
ASUS44 KLIX 060211
RWRLA
LOUISIANA WEATHER ROUNDUP
NATIONAL WEATHER SERVICE NEW ORLEANS LA
900 PM CDT SUN JUL 05 2015

NOTE: "FAIR" INDICATES FEW OR NO CLOUDS BELOW 12,000 FEET WITH NO
      SIGNIFICANT WEATHER AND/OR OBSTRUCTIONS TO VISIBILITY.
      SKY/WX - SKY CONDITION AND SIGNIFICANT WEATHER.
      TMP - AIR TEMPERATURE.    DP   - DEWPOINT TEMPERATURE.
      RH  - RELATIVE HUMIDITY.  PRES - PRESSURE.
      HX  - HEAT INDEX.         WCI  - WIND CHILL INDEX.

*  THESE STATIONS ARE NOT NWS OR FAA STATIONS AND ARE NOT UNDER
   NWS QUALITY CONTROL.

LAZ040-048-061>063-065-066-069-060300-
SOUTHEAST LOUISIANA

CITY           SKY/WX    TMP DP  RH WIND       PRES   REMARKS
N.O. AUDUBON     N/A     73  73  98 MISG        N/A
N.O. INTL ARPT CLOUDY    75  66  73 NE9       30.14F
N.O. LAKEFRONT CLOUDY    76  68  76 E10       30.15F
N.O. DOWNTOWN* FAIR      75  64  69 NE6       30.16F
RESERVE*       NOT AVBL
SLIDELL        LGT RAIN  71  71 100 S7        30.12F
BATON ROUGE    CLOUDY    70  67  90 E3        30.12F THUNDER
BOOTHVILLE     CLOUDY    76  72  87 NE15G23   30.18F
BELLE CHASSE   CLOUDY    72  32  23 NE5       30.15F
BOGALUSA*        N/A     72  67  84 N6        30.13F
GALLIANO*      MOCLDY    75  71  86 E3        30.17R
NEW ROADS*     FAIR     N/A N/A N/A CALM      30.13F
GONZALES*      FAIR      72  70  94 SE3       30.14F
HAMMOND*       LGT RAIN  70  66  88 S6        30.13F
HOUMA*         CLOUDY    73  71  95 NE6       30.17R
PORT FOURCHON* CLEAR     79  70  73 NE18G25   30.16S

$$

LAZ041-044-053-054-060300-
SOUTHWEST LOUISIANA

CITY           SKY/WX    TMP DP  RH WIND       PRES   REMARKS
LAKE CHARLES   MOCLDY    81  75  82 SE5       30.08R
LAFAYETTE      CLOUDY    73  69  87 NE5       30.13S
PATTERSON      CLOUDY    75  64  69 E16       30.16S
SALT POINT       N/A     80  74  81 VRB7      30.13R
NEW IBERIA     NOT AVBL
CHENAULT AIRPK CLEAR     79  75  89 SE7       30.09R

$$

LAZ027-028-060300-
CENTRAL LOUISIANA

CITY           SKY/WX    TMP DP  RH WIND       PRES   REMARKS
FORT POLK      CLOUDY    73  68  84 E7        30.10R
ALEXANDRIA INT CLOUDY    72  70  93 SE7       30.09F
ALEXANDRIA     CLOUDY    73  69  87 S3        30.10F

$$

LAZ001-002-060300-
NORTHWEST LOUISIANA

CITY           SKY/WX    TMP DP  RH WIND       PRES   REMARKS
SHREVEPORT     CLOUDY    74  71  91 SE10      30.06F
BARKSDALE AFB  CLOUDY    74  71  90 S17       30.05F
DTN SHREVEPORT CLOUDY    75  70  84 S15       30.06S

$$

LAZ014-016-060300-
NORTHEAST LOUISIANA

CITY           SKY/WX    TMP DP  RH WIND       PRES   REMARKS
MONROE         MOCLDY    69  68  96 CALM      30.05F
TALLULAH       CLOUDY    71  68  90 SE3       30.07F

$$



USA.gov is the U.S. government's official web portal to all federal, state and local government web resources and services.